EFTU Weather Reports


time (UTC)temp
C
wind
direction
speed
KPH
gust
KPH
rain 1hr
cm
rain 24hr
cm
rain mn
cm
humidity
%
barometer
mb
20260906064127 11 318 8.0 14.5 0.00 0.00 0.00 76 1008.1
20260906062457 10 297 6.4 11.3 0.00 0.00 0.00 81 1007.9
20260906060454 10 309 6.4 9.7 0.00 0.00 0.00 84 1007.8
20260906054457 8 306 6.4 9.7 0.00 0.00 0.00 88 1007.7
20260906044128 7 300 6.4 9.7 0.00 0.00 0.00 95 1007.3
20260906042128 6 299 6.4 11.3 0.00 0.00 0.00 97 1007.0
20260906040457 6 321 6.4 11.3 0.00 0.00 0.00 95 1006.8
20260906034456 6 307 6.4 9.7 0.00 0.00 0.00 97 1006.7
20260906032456 6 307 6.4 11.3 0.00 0.00 0.00 95 1006.6
20260906030458 6 316 6.4 9.7 0.00 0.00 0.00 96 1006.3
20260906022458 7 333 6.4 11.3 0.00 0.00 0.00 94 1005.9
20260906020457 7 317 8.0 16.1 0.00 0.00 0.00 94 1005.7
20260906014459 6 305 9.7 16.1 0.00 0.00 0.00 96 1005.5
20260906012456 6 309 8.0 11.3 0.00 0.00 0.00 96 1005.3
20260906010458 7 327 4.8 11.3 0.00 0.00 0.00 94 1005.0
20260906004459 7 329 6.4 12.9 0.00 0.00 0.00 93 1004.9
20260906002127 7 329 8.0 14.5 0.00 0.00 0.00 93 1004.7
20260906000456 7 329 8.0 14.5 0.00 0.00 0.00 93 1004.5
20260905234456 8 339 9.7 17.7 0.00 0.00 0.00 92 1004.2
20260905232456 8 327 9.7 19.3 0.00 0.00 0.00 91 1004.0
20260905230456 8 339 9.7 20.9 0.00 0.00 0.00 90 1003.8
20260905224128 8 331 8.0 16.1 0.00 0.00 0.00 90 1003.7
20260905222456 8 325 9.7 19.3 0.00 0.00 0.00 89 1003.4
20260905220456 8 323 8.0 14.5 0.00 0.00 0.00 89 1003.1
20260905214456 10 339 8.0 16.1 0.00 0.00 0.00 87 1002.7
20260905212457 10 333 6.4 12.9 0.00 0.00 0.00 88 1002.5
20260905210454 10 347 9.7 17.7 0.00 0.00 0.00 86 1002.2
20260905204455 11 359 11.3 20.9 0.00 0.00 0.00 85 1001.9
20260905202455 11 353 8.0 14.5 0.00 0.00 0.00 87 1001.6
20260905200457 11 3 9.7 16.1 0.00 0.00 0.00 86 1001.2
20260905194126 11 348 9.7 19.3 0.00 0.00 0.00 87 1000.9
20260905184456 12 314 6.4 9.7 0.00 0.00 0.00 83 1000.2
20260905182125 12 308 8.0 9.7 0.00 0.00 0.00 83 1000.2
20260905180453 12 314 6.4 9.7 0.00 0.00 0.00 83 1000.2
20260905174453 13 315 6.4 11.3 0.00 0.00 0.00 80 999.9
20260905172453 13 317 6.4 11.3 0.00 0.00 0.00 78 999.7
20260905162127 15 314 12.9 20.9 0.00 0.00 0.00 71 999.0
20260905160454 15 322 14.5 22.5 0.00 0.00 0.00 67 998.7
20260905154454 16 300 14.5 24.1 0.00 0.00 0.00 66 998.5
20260905152126 15 301 9.7 16.1 0.00 0.00 0.00 72 998.5
20260905142455 15 320 8.0 12.9 0.00 0.00 0.00 77 998.0
20260905140125 13 331 8.0 16.1 0.00 0.00 0.00 83 997.9
20260905134454 14 338 19.3 30.6 0.00 0.00 0.00 78 997.8
20260905132125 17 319 17.7 32.2 0.00 0.00 0.00 57 997.3
20260905130459 16 310 17.7 32.2 0.00 0.00 0.00 56 997.1
20260905124124 17 334 11.3 19.3 0.00 0.00 0.00 49 997.0
20260905122453 17 335 11.3 20.9 0.00 0.00 0.00 46 996.9
20260905120454 18 313 9.7 19.3 0.00 0.00 0.00 44 996.8
20260905114454 17 314 8.0 20.9 0.00 0.00 0.00 49 996.7
20260905110124 17 296 11.3 17.7 0.00 0.00 0.00 52 996.5
20260905102454 16 320 12.9 22.5 0.00 0.00 0.00 56 996.2
20260905100123 17 328 11.3 22.5 0.00 0.00 0.00 53 996.0
20260905092454 16 321 11.3 19.3 0.00 0.00 0.00 59 995.8
20260905090454 15 8 6.4 12.9 0.00 0.00 0.00 67 995.7
20260905084454 16 356 8.0 16.1 0.00 0.00 0.00 65 995.6
20260905082456 15 14 6.4 14.5 0.00 0.00 0.00 68 995.5
20260905080452 14 33 6.4 11.3 0.00 0.00 0.00 74 995.5
20260905074124 13 26 6.4 11.3 0.00 0.00 0.00 79 995.4
20260905072123 11 19 4.8 9.7 0.00 0.00 0.00 91 995.3